DW3201 Weather Reports


time (UTC)temp
C
wind
direction
speed
KPH
gust
KPH
rain 1hr
cm
rain 24hr
cm
rain mn
cm
humidity
%
barometer
mb
20260505053056 13 281 4.8 14.5 0.00 0.00 0.00 42 1001.6
20260505051552 13 273 4.8 11.3 0.00 0.00 0.00 40 1001.3
20260505041605 15 293 6.4 14.5 0.00 0.00 0.00 35 1000.2
20260505040058 16 278 4.8 9.7 0.00 0.00 0.00 38 1000.0
20260505034554 16 273 3.2 9.7 0.00 0.00 0.00 39 999.9
20260505033056 16 287 1.6 8.0 0.00 0.00 0.00 38 1000.1
20260505031554 16 268 3.2 6.4 0.00 0.00 0.00 37 1000.0
20260505030107 17 281 3.2 8.0 0.00 0.00 0.00 36 999.6
20260505024603 17 308 6.4 16.1 0.00 0.00 0.00 34 999.4
20260505023059 17 266 6.4 14.5 0.00 0.00 0.00 34 999.1
20260505021601 18 231 8.0 20.9 0.00 0.00 0.00 35 998.8
20260505020105 19 290 8.0 16.1 0.00 0.00 0.00 35 998.3
20260505014556 20 285 6.4 12.9 0.00 0.00 0.00 35 997.9
20260505013059 20 266 6.4 11.3 0.00 0.00 0.00 39 997.4
20260505011552 20 278 3.2 12.9 0.00 0.00 0.00 38 996.5
20260505010111 21 255 4.8 12.9 0.00 0.00 0.00 38 996.0
20260505004555 22 229 4.8 19.3 0.00 0.00 0.00 37 995.8
20260505003124 23 276 3.2 6.4 0.00 0.00 0.00 35 995.3
20260505001558 23 248 4.8 9.7 0.00 0.00 0.00 34 994.7
20260505000059 23 225 6.4 11.3 0.00 0.00 0.00 33 994.8
20260504234555 23 258 4.8 12.9 0.00 0.00 0.00 32 994.8
20260504233057 23 280 8.0 16.1 0.00 0.00 0.00 31 995.0
20260504231552 23 303 8.0 19.3 0.00 0.00 0.00 31 995.4
20260504230113 23 269 16.1 35.4 0.00 0.00 0.00 29 995.5
20260504224612 24 291 9.7 22.5 0.00 0.00 0.00 30 995.4
20260504223053 26 271 14.5 29.0 0.00 0.00 0.00 29 995.4
20260504221553 26 245 16.1 30.6 0.00 0.00 0.00 28 995.2
20260504220057 26 240 16.1 27.4 0.00 0.00 0.00 28 995.5
20260504214551 25 231 12.9 33.8 0.00 0.00 0.00 28 995.7
20260504213056 25 221 14.5 27.4 0.00 0.00 0.00 27 995.7
20260504211558 26 295 11.3 33.8 0.00 0.00 0.00 27 995.8
20260504210101 26 263 17.7 32.2 0.00 0.00 0.00 26 995.9
20260504204556 26 297 17.7 35.4 0.00 0.00 0.00 27 996.1
20260504203057 25 211 14.5 37.0 0.00 0.00 0.00 27 996.2
20260504201604 25 210 16.1 30.6 0.00 0.00 0.00 27 996.4
20260504194555 25 260 14.5 30.6 0.00 0.00 0.00 26 996.8
20260504193052 25 243 16.1 30.6 0.00 0.00 0.00 25 996.7
20260504191606 25 193 17.7 32.2 0.00 0.00 0.00 26 996.9
20260504190052 25 210 16.1 29.0 0.00 0.00 0.00 26 997.0
20260504184551 25 245 14.5 38.6 0.00 0.00 0.00 27 996.9
20260504183053 24 245 20.9 32.2 0.00 0.00 0.00 27 997.1
20260504181559 24 260 19.3 37.0 0.00 0.00 0.00 26 997.4
20260504180052 23 162 14.5 35.4 0.00 0.00 0.00 27 997.3
20260504174558 23 249 12.9 35.4 0.00 0.00 0.00 27 997.6
20260504173058 23 266 16.1 27.4 0.00 0.00 0.00 27 997.7
20260504171555 23 245 19.3 35.4 0.00 0.00 0.00 28 998.2
20260504120124 12 231 0.0 6.4 0.00 0.00 0.00 63 1001.4
20260504081557 9 0 0.0 1.6 0.00 0.00 0.00 76 1002.5